CZ-3B DEB, 39333

Orbit data source: Space-Track

CZ-3B DEB, 39333 is space debris in HEO originally from a launch on Sat, 04 Sep 2010 UTC launched from the Xichang Space Center, China (XSC). Debris objects in space refer to the collection of defunct objects orbiting the Earth. Examples of debris include non-operational satellites, rocket bodies, and fragments generated from explosions, collisions, or faulty payload assembly.

Loading next visibility...
Identifier
39333, 2010-042E
Orbit
HEO
Last TLE update
14 hours ago
Origin
Manufacturer
CALT
Mission
Spacecraft
Bus & Motor
Unknown
Mass
Unknown
Launch date (UTC)
2010-09-04 (15 years ago)
Launch vehicle
Unknown
Launch site
Xichang Space Center, China (XSC)
Object type
Payload
Rocket body
Debris
Shape & HBR
Unknown
Radar Cross Section
Medium (>0.1 m² and <1 m²)

Expand to show TLE details & history

TLE from 14 hours ago
0 CZ-3B DEB
1 39333U 10042E   25187.36856646  .00000393  00000-0  31816-2 0  9991
2 39333  23.5879 115.5626 7489946 327.2990 312.7003  1.91215670 83494
Epoch: 2025-07-06T08:50Z
TLE epoch observation values (Epoch: 2025-07-06T08:50:44.142Z)
Latitude
-3.46931°
Longitude
-113.85886°
Altitude
21,154.5 km
Speed
3.797 km/s
True Right ascension
20h 13m 40s
True Declination
-3° 27' 50"
Sunlit
Object was in daylight at epoch
Visualization orbit readout
Latitude
-23.26867°
Longitude
-19.7103°
Altitude
1,544.684 km
Speed
9.28 km/s
Apparent Right ascension
01h 04m 32s
Apparent Declination
-33° 24' 49"
Sunlit
Object is in daylight
Visualization observer readout
Local Sidereal Time
10:52:57
Azimuth
273.455° WNW
Elevation
-62.989°
Doppler factor
1
Orbital elements
Apogee altitude
41,585.052 km
Perigee altitude
505.257 km
Semi-major axis
27,423.292 km
Eccentricity
0.74899
Inclination
23.5879°
RAAN
115.5626°
Arg. of periapsis
327.299°
True anomaly
Unknown
Mean anomaly
312.7003°
Eccentric anomaly
Unknown
Mean motion
0.47793 °/min
Orbital period
753.25 mins
BSTAR
0.0031816
Loading maneuver chart data...
Loading SW <> Apogee altitude chart data...
Loading historical data...
Loading historical data...
Loading historical data...
Loading historical data...
Loading historical data...
Loading historical data...
Loading historical data...

CZ-3B DEB Visibility forecast

Observer location: undefined°, undefined°

Span
Click to sort rows by Start time (UTC) header in descending order
Start Az.
Max El. time (UTC)
Max El. Az.
Max El.
End time (UTC)
End Az.
696 mins2025-07-06 23:18:45.326Z224.141° SW2025-07-07 05:01:45.326Z163.527° S40.345°2025-07-07 10:54:45.326Z193.258° SSW
|